Regional Weather Roundup
Issued by NWS Columbia, SC

Home | Current Version | Previous Version | Text Only | Print | Product List | Glossary On
Versions: 1 2 3 4 5 6 7 8 9 10 11 12 13 14 15 16 17 18 19 20 21 22 23 24 25 26 27 28 29 30 31 32 33 34 35 36 37 38 39 40 41 42 43 44 45 46 47 48 49 50
000
ASUS42 KCAE 020710
RWRCAE
REGIONAL WEATHER ROUNDUP
NATIONAL WEATHER SERVICE COLUMBIA SC
300 AM EDT TUE JUN 02 2015

NOTE: "FAIR" INDICATES FEW OR NO CLOUDS BELOW 12,000 FEET WITH NO
SIGNIFICANT WEATHER AND/OR OBSTRUCTIONS TO VISIBILITY.

NOT ALL STATIONS ARE QUALITY CONTROLLED BY THE NATIONAL
WEATHER SERVICE. USE DATA WITH CAUTION...ESPECIALLY
DEWPOINT OBSERVATIONS.

SCZ001>056-GAZ040-063>065-077-020800-
...UPSTATE SOUTH CAROLINA...

CITY           SKY/WX    TMP DP  RH WIND       PRES   REMARKS
ANDERSON       CLOUDY    68  66  93 CALM      30.02F
LIBERTY        CLOUDY   N/A N/A N/A NE3       30.02F
SPARTANBURG    CLOUDY   N/A N/A N/A CALM      30.01F
CLEMSON        MOCLDY    69  65  86 CALM      30.03F
GREENVILLE     CLOUDY    70  61  73 CALM      30.03F
GREENWOOD      CLOUDY    67  65  93 CALM      30.02F
GREER          CLOUDY    66  63  90 CALM      30.01F
ROCK HILL      MOCLDY    67  64  90 CALM      30.02F
CHESTER        PTSUNNY   68  64  88 CALM      30.02F
LAURENS        CLOUDY    64  64 100 CALM      30.01F


...CENTRAL SOUTH CAROLINA...

CITY           SKY/WX    TMP DP  RH WIND       PRES   REMARKS
COLUMBIA APT   CLOUDY    70  67  90 CALM      30.00F
COLUMBIA OWENS CLOUDY    70  67  90 CALM      30.01F
DARLINGTON     MOCLDY    70  64  83 CALM      30.03F
FLORENCE       MOCLDY    70  68  93 CALM      30.02S
MCENTIRE ANGB  CLOUDY    67  66  96 E5        30.01F
ORANGEBURG     CLOUDY    69  66  90 CALM      30.02F
SUMTER SHAW    MOCLDY    71  65  80 S2        30.00F
AIKEN          LGT RAIN  68  64  88 CALM      30.05F
BARNWELL       FAIR      70  70 100 CALM      30.02F
MANNING        CLOUDY    73  68  83 SW3       30.02S
CAMDEN         PTSUNNY   70  68  94 CALM      30.03S
LANCASTER      LGT RAIN  66  66 100 CALM      30.02F
WINNSBORO      CLOUDY    68  68 100 CALM      30.02F


...EASTERN AND COASTAL SOUTH CAROLINA...

CITY           SKY/WX    TMP DP  RH WIND       PRES   REMARKS
MYRTLE BEACH   PTCLDY    73  68  83 CALM      30.04F
N MYRTLE BCH   PTCLDY    75  70  84 W5        30.02F
CONWAY         FAIR      70  70 100 CALM      30.02F
MARION         FAIR      70  68  94 S3        30.02S
HARTSVILLE     PTSUNNY   66  66 100 CALM      30.02S
FLORENCE       MOCLDY    70  68  93 CALM      30.02S
DARLINGTON     MOCLDY    70  64  83 CALM      30.03F
CHARLESTON APT PTCLDY    72  68  87 CALM      30.02F
MOUNT PLEASANT FAIR      70  70 100 CALM      30.02F
WALTERBORO     CLOUDY    70  68  94 CALM      30.03S
BEAUFORT       MOCLDY    72  68  87 SW3       30.01F


...EASTERN GEORGIA...

CITY           SKY/WX    TMP DP  RH WIND       PRES   REMARKS
AUGUSTA BUSH F CLOUDY    68  67  96 CALM      30.00F FOG
AUGUSTA DANIEL LGT RAIN  70  67  90 CALM      30.02F
THOMSON        CLOUDY    69  69 100 CALM      30.06F
WASHINGTON     FAIR      68  68 100 CALM      30.01F
CLAXTON        PTSUNNY   68  68 100 CALM      30.03S FOG
SYLVANIA       CLOUDY    70  70 100 CALM      30.04S
STATESBORO     CLOUDY    69  32  25 CALM      30.02F
SAVANNAH       PTCLDY    69  67  93 CALM      30.02F


...SOUTHERN NORTH CAROLINA...

CITY           SKY/WX    TMP DP  RH WIND       PRES   REMARKS
CHARLOTTE      CLOUDY    68  62  81 S5        30.01F
MONROE         MOCLDY    68  65  90 SW3       30.00F
WADESBORO      PTSUNNY   67  66  96 CALM      30.01F
ROCKINGHAM     PTSUNNY   68  67  97 CALM      30.01F
RUTHERFORDTON  CLOUDY    63  63 100 CALM      30.02F
ASHEVILLE      MOCLDY    60  58  92 CALM      30.06F

$$


USA.gov is the U.S. government's official web portal to all federal, state and local government web resources and services.